Weather History for Mobile Downtown, AL

Change the Weather History Date:

Tuesday, October 8, 2013

  Actual Average Record
Temperature  
Mean Temperature 66 °F -  
Max Temperature 79 °F 78 °F 89 °F (2007)
Min Temperature 54 °F 61 °F 51 °F (2010)
Cooling Degree Days 2    
Growing Degree Days 16 (Base 50)    
Moisture  
Dew Point 54 °F    
Average Humidity 69    
Maximum Humidity 90    
Minimum Humidity 43    
Precipitation  
Precipitation 0.00 in - - ()
Sea Level Pressure  
Sea Level Pressure 30.01 in    
Wind  
Wind Speed 7 mph (NNW)    
Max Wind Speed 10 mph    
Max Gust Speed -    
Visibility 10 miles    
Events      
Averages and records for this station are not official NWS values.
T = Trace of Precipitation, MM = Missing Value Source: NWS Daily Summary

Daily Weather History Graph

Daily Weather History Graph

Search for Another Location

Airport:

Trip Planner

Search our weather history database for the weather conditions in past years. The results will help you decide how hot, cold, wet, or windy it might be!

Date:

Astronomy

Oct. 08, 2013 Rise Set
Actual Time 6:50 AM CDT 6:28 PM CDT
Civil Twilight 6:26 AM CDT 6:52 PM CDT
Nautical Twilight 5:58 AM CDT 7:20 PM CDT
Astronomical Twilight 5:30 AM CDT 7:48 PM CDT
Moon 10:29 AM CDT (10/8) 9:20 PM CDT (10/8)
Length of Visible Light 12h 26m
Length of Day
11h 38m
Waxing Crescent, 16% of the Moon is Illuminated
Oct 8
Waxing Crescent
Oct 11
First Quarter
Oct 18
Full
Oct 26
Last Quarter
Nov 3
New

Hourly Weather History & Observations

Time (CDT) Temp. Dew Point Humidity Pressure Visibility Wind Dir Wind Speed Gust Speed Precip Events Conditions
12:53 AM 59.0 °F 52.0 °F 78% 30.00 in 10.0 mi NNW 8.1 mph - N/A   Clear
1:53 AM 59.0 °F 52.0 °F 78% 30.00 in 10.0 mi NNW 9.2 mph - N/A   Clear
2:53 AM 59.0 °F 52.0 °F 78% 29.99 in 10.0 mi NNW 9.2 mph - N/A   Clear
3:19 AM 57.2 °F 51.8 °F 82% 29.98 in 10.0 mi NNW 8.1 mph - N/A   Clear
3:53 AM 57.0 °F 52.0 °F 83% 29.99 in 10.0 mi NNW 6.9 mph - N/A   Clear
4:53 AM 55.9 °F 52.0 °F 87% 30.00 in 10.0 mi NNW 5.8 mph - N/A   Clear
5:53 AM 55.0 °F 52.0 °F 89% 30.00 in 10.0 mi NNW 6.9 mph - N/A   Clear
6:53 AM 54.0 °F 51.1 °F 90% 30.01 in 10.0 mi NW 6.9 mph - N/A   Clear
7:53 AM 57.9 °F 52.0 °F 81% 30.02 in 10.0 mi NNW 10.4 mph - N/A   Partly Cloudy
8:53 AM 62.1 °F 52.0 °F 70% 30.03 in 10.0 mi NNW 9.2 mph - N/A   Clear
9:53 AM 66.0 °F 53.1 °F 63% 30.04 in 10.0 mi North 6.9 mph - N/A   Clear
10:53 AM 68.0 °F 54.0 °F 61% 30.04 in 10.0 mi NE 8.1 mph - N/A   Clear
11:53 AM 73.0 °F 54.0 °F 51% 30.02 in 10.0 mi NW 6.9 mph - N/A   Clear
12:53 PM 75.0 °F 52.0 °F 44% 30.01 in 10.0 mi NNE 6.9 mph - N/A   Clear
1:53 PM 77.0 °F 53.1 °F 43% 29.99 in 10.0 mi NE 4.6 mph - N/A   Clear
2:53 PM 78.1 °F 55.0 °F 45% 29.99 in 10.0 mi NE 8.1 mph - N/A   Clear
3:53 PM 79.0 °F 55.0 °F 44% 29.98 in 10.0 mi NE 9.2 mph - N/A   Clear
4:53 PM 78.1 °F 54.0 °F 43% 29.98 in 10.0 mi NNE 5.8 mph - N/A   Clear
5:53 PM 77.0 °F 55.9 °F 48% 29.99 in 10.0 mi North 3.5 mph - N/A   Clear
6:53 PM 66.9 °F 57.9 °F 73% 30.00 in 10.0 mi NW 3.5 mph - N/A   Clear
7:53 PM 66.9 °F 57.9 °F 73% 30.01 in 10.0 mi NW 4.6 mph - N/A   Clear
8:53 PM 64.9 °F 57.9 °F 78% 30.02 in 10.0 mi NW 3.5 mph - N/A   Clear
9:53 PM 64.9 °F 57.9 °F 78% 30.03 in 10.0 mi NNW 5.8 mph - N/A   Partly Cloudy
10:53 PM 64.9 °F 59.0 °F 81% 30.03 in 10.0 mi NNW 5.8 mph - N/A   Partly Cloudy
11:53 PM 66.0 °F 59.0 °F 78% 30.03 in 10.0 mi NNW 6.9 mph - N/A   Scattered Clouds